BCS5378 LEPA-ELLX

Flight info

Callsign BCS5378
Flight time N/A
Altitude 38000
Route MEROS N853 LUMAS DCT MAXIR DCT LUSOL DCT BODRU DCT OKTET DCT IRMAR DCT KINES DCT VANAS DCT MOBLO DCT UBIMA DCT GILIR DCT PENDU DCT IXILU DCT EPL G21 GIVOR
Aircraft A339/H-SADE1E2E3GHIJ3J5M1P2RWXY/LB2D1

Departure

Time 2026-05-06 16:48
Airport Palma de Mallorca Airport (LEPA)

Arrival

Time N/A
Airport Luxembourg-Findel International Airport (ELLX)
Time Latitude Longitude Altitude Speed Heading
2026-05-06 16:05 39.54353 2.72765 36 ft 0 kts 328°
2026-05-06 16:38 39.54335 2.72779 36 ft 3 kts 328°
2026-05-06 16:39 39.54322 2.72789 33 ft 3 kts 328°
2026-05-06 16:39 39.54307 2.72803 33 ft 3 kts 342°
2026-05-06 16:39 39.54292 2.72813 34 ft 3 kts 50°
2026-05-06 16:39 39.54279 2.72789 33 ft 3 kts 59°
2026-05-06 16:40 39.54268 2.72764 35 ft 3 kts 58°
2026-05-06 16:40 39.54263 2.72755 34 ft 0 kts 58°
2026-05-06 16:43 39.54265 2.72759 35 ft 2 kts 59°
2026-05-06 16:43 39.54269 2.72781 34 ft 3 kts 78°
2026-05-06 16:44 39.54260 2.72807 36 ft 4 kts 114°
2026-05-06 16:44 39.54243 2.72838 36 ft 5 kts 130°
2026-05-06 16:44 39.54223 2.72882 36 ft 6 kts 110°
2026-05-06 16:44 39.54232 2.72935 36 ft 6 kts 66°
2026-05-06 16:45 39.54255 2.72994 36 ft 8 kts 62°
2026-05-06 16:45 39.54285 2.73060 36 ft 9 kts 59°
2026-05-06 16:45 39.54305 2.73140 36 ft 9 kts 91°
2026-05-06 16:45 39.54294 2.73184 36 ft 0 kts 107°
2026-05-06 16:46 39.54290 2.73203 36 ft 5 kts 107°
2026-05-06 16:46 39.54283 2.73255 36 ft 7 kts 97°
2026-05-06 16:47 39.54277 2.73323 36 ft 9 kts 96°
2026-05-06 16:47 39.54273 2.73408 36 ft 10 kts 92°
2026-05-06 16:47 39.54287 2.73503 36 ft 11 kts 68°
2026-05-06 16:47 39.54331 2.73600 36 ft 18 kts 59°
2026-05-06 16:48 39.54561 2.74068 36 ft 105 kts 58°
2026-05-06 16:48 39.55066 2.75159 42 ft 173 kts 58°
2026-05-06 16:48 39.55708 2.76638 464 ft 197 kts 58°
2026-05-06 16:48 39.56397 2.78281 1081 ft 214 kts 62°
2026-05-06 16:49 39.57111 2.80046 1773 ft 225 kts 62°
2026-05-06 16:49 39.57904 2.81796 2609 ft 225 kts 56°
2026-05-06 16:49 39.58776 2.83502 3403 ft 230 kts 54°
2026-05-06 16:49 39.59662 2.85237 3923 ft 236 kts 55°
2026-05-06 16:50 39.60555 2.87070 4661 ft 240 kts 56°
2026-05-06 16:50 39.61422 2.88914 5482 ft 243 kts 57°
2026-05-06 16:50 39.62300 2.90800 6332 ft 247 kts 57°
2026-05-06 16:50 39.63363 2.92656 6761 ft 266 kts 47°
2026-05-06 16:51 39.64614 2.94522 7061 ft 287 kts 49°
2026-05-06 16:51 39.65825 2.96659 7522 ft 298 kts 56°
2026-05-06 16:51 39.66907 2.99032 8211 ft 302 kts 61°
2026-05-06 16:51 39.67868 3.01417 8911 ft 306 kts 63°
2026-05-06 16:52 39.68831 3.03926 9608 ft 310 kts 64°
2026-05-06 16:52 39.69798 3.06456 10201 ft 316 kts 64°
2026-05-06 16:52 39.70813 3.09096 10421 ft 337 kts 64°
2026-05-06 16:52 39.71923 3.11886 10585 ft 356 kts 59°
2026-05-06 16:53 39.73550 3.14334 10941 ft 365 kts 38°
2026-05-06 16:53 39.75674 3.16087 11526 ft 367 kts 26°
2026-05-06 16:53 39.78006 3.17586 12102 ft 371 kts 23°
2026-05-06 16:53 39.80323 3.19063 12643 ft 376 kts 24°
2026-05-06 16:54 39.82653 3.20642 13212 ft 381 kts 26°
2026-05-06 16:54 39.84999 3.22321 13781 ft 386 kts 27°
2026-05-06 16:54 39.87347 3.24049 14306 ft 389 kts 27°
2026-05-06 16:54 39.89704 3.25804 14827 ft 393 kts 27°
2026-05-06 16:55 39.92097 3.27593 15368 ft 396 kts 27°
2026-05-06 16:55 39.94484 3.29376 15883 ft 399 kts 27°
2026-05-06 16:55 39.96897 3.31177 16418 ft 403 kts 27°
2026-05-06 16:55 39.99332 3.32993 16929 ft 406 kts 26°
2026-05-06 16:56 40.01813 3.34844 17440 ft 410 kts 26°
2026-05-06 16:56 40.04317 3.36713 17978 ft 413 kts 26°
2026-05-06 16:56 40.06815 3.38580 18451 ft 417 kts 26°
2026-05-06 16:56 40.09321 3.40454 18899 ft 421 kts 26°
2026-05-06 16:57 40.11853 3.42349 19342 ft 424 kts 26°
2026-05-06 16:57 40.14415 3.44269 19780 ft 428 kts 26°
2026-05-06 16:57 40.17019 3.46222 20263 ft 431 kts 26°
2026-05-06 16:57 40.19630 3.48182 20700 ft 435 kts 26°
2026-05-06 16:58 40.22280 3.50171 21155 ft 439 kts 25°
2026-05-06 16:58 40.24912 3.52148 21611 ft 442 kts 25°
2026-05-06 16:58 40.27592 3.54164 22061 ft 446 kts 25°
2026-05-06 16:58 40.30308 3.56209 22519 ft 450 kts 25°
2026-05-06 16:59 40.33031 3.58261 22962 ft 454 kts 25°
2026-05-06 16:59 40.35800 3.60349 23408 ft 458 kts 25°
2026-05-06 16:59 40.38528 3.62409 23798 ft 462 kts 25°
2026-05-06 16:59 40.41340 3.64534 24201 ft 465 kts 25°
2026-05-06 17:00 40.44161 3.66668 24582 ft 469 kts 25°
2026-05-06 17:00 40.47009 3.68823 24949 ft 473 kts 25°
2026-05-06 17:00 40.49860 3.70984 25340 ft 476 kts 25°
2026-05-06 17:00 40.52756 3.73180 25700 ft 480 kts 25°
2026-05-06 17:01 40.55668 3.75392 26059 ft 484 kts 25°
2026-05-06 17:01 40.58559 3.77589 26424 ft 488 kts 25°
2026-05-06 17:01 40.61506 3.79832 26784 ft 492 kts 25°
2026-05-06 17:01 40.64494 3.82108 27125 ft 495 kts 26°
2026-05-06 17:02 40.67491 3.84392 27494 ft 498 kts 26°
2026-05-06 17:02 40.70481 3.86674 27849 ft 502 kts 26°
2026-05-06 17:02 40.73521 3.88997 28195 ft 505 kts 26°
2026-05-06 17:02 40.76563 3.91328 28452 ft 510 kts 26°
2026-05-06 17:03 40.79634 3.93673 28849 ft 512 kts 26°
2026-05-06 17:03 40.82753 3.96047 29174 ft 515 kts 26°
2026-05-06 17:03 40.85853 3.98423 29500 ft 518 kts 26°
2026-05-06 17:03 40.88988 4.00840 29852 ft 521 kts 26°
2026-05-06 17:04 40.92140 4.03271 30150 ft 524 kts 26°
2026-05-06 17:04 40.95275 4.05690 30473 ft 527 kts 26°
2026-05-06 17:04 40.98457 4.08145 30802 ft 529 kts 26°
2026-05-06 17:04 41.01617 4.10584 31107 ft 532 kts 26°
2026-05-06 17:05 41.04829 4.13065 31437 ft 534 kts 26°
2026-05-06 17:05 41.08032 4.15541 31735 ft 537 kts 26°
2026-05-06 17:05 41.11275 4.18051 32047 ft 539 kts 26°
2026-05-06 17:05 41.14518 4.20565 32362 ft 541 kts 26°
2026-05-06 17:06 41.17785 4.23099 32613 ft 543 kts 26°
2026-05-06 17:06 41.21045 4.25631 32849 ft 545 kts 27°
2026-05-06 17:06 41.24291 4.28157 33068 ft 547 kts 27°
2026-05-06 17:06 41.27576 4.30715 33278 ft 548 kts 27°
2026-05-06 17:07 41.30880 4.33291 33440 ft 549 kts 27°
2026-05-06 17:07 41.34191 4.35875 33651 ft 550 kts 27°
2026-05-06 17:07 41.37487 4.38451 33878 ft 549 kts 27°
2026-05-06 17:07 41.40754 4.41008 34100 ft 549 kts 27°
2026-05-06 17:08 41.44045 4.43586 34316 ft 548 kts 27°
2026-05-06 17:08 41.47352 4.46180 34534 ft 547 kts 27°
2026-05-06 17:08 41.50603 4.48733 34752 ft 546 kts 27°
2026-05-06 17:08 41.53873 4.51305 35000 ft 545 kts 27°
2026-05-06 17:09 41.57137 4.53874 35206 ft 544 kts 27°
2026-05-06 17:09 41.60358 4.56413 35439 ft 542 kts 27°
2026-05-06 17:09 41.63609 4.58978 35686 ft 541 kts 27°
2026-05-06 17:09 41.66846 4.61535 35899 ft 540 kts 27°
2026-05-06 17:10 41.70090 4.64099 36140 ft 538 kts 27°
2026-05-06 17:10 41.73318 4.66653 36351 ft 537 kts 27°
2026-05-06 17:10 41.76518 4.69201 36559 ft 536 kts 27°
2026-05-06 17:10 41.79718 4.71774 36805 ft 534 kts 27°
2026-05-06 17:11 41.82916 4.74351 37032 ft 533 kts 27°
2026-05-06 17:11 41.86051 4.76878 37252 ft 532 kts 27°
2026-05-06 17:11 41.89223 4.79434 37462 ft 531 kts 27°
2026-05-06 17:11 41.92369 4.81970 37667 ft 529 kts 27°
2026-05-06 17:12 41.95585 4.84566 37904 ft 528 kts 27°
2026-05-06 17:12 42.01842 4.89624 37951 ft 526 kts 27°
2026-05-06 17:13 42.08128 4.94717 37942 ft 527 kts 27°
2026-05-06 17:13 42.14420 4.99828 37944 ft 527 kts 27°
2026-05-06 17:14 42.20646 5.04897 37939 ft 527 kts 27°
2026-05-06 17:14 42.26902 5.10001 37946 ft 527 kts 27°
2026-05-06 17:15 42.33194 5.15148 37937 ft 527 kts 27°
2026-05-06 17:15 42.39471 5.20295 37936 ft 527 kts 27°
2026-05-06 17:16 42.45717 5.25428 37930 ft 527 kts 27°
2026-05-06 17:16 42.52002 5.30605 37936 ft 527 kts 27°
2026-05-06 17:17 42.58250 5.35764 37925 ft 526 kts 28°
2026-05-06 17:17 42.64530 5.40964 37939 ft 525 kts 28°
2026-05-06 17:18 42.70785 5.46154 37954 ft 525 kts 28°
2026-05-06 17:18 42.76981 5.51307 37925 ft 525 kts 28°
2026-05-06 17:19 42.83209 5.56500 37899 ft 525 kts 28°
2026-05-06 17:19 42.89441 5.61709 38023 ft 524 kts 28°
2026-05-06 17:19 42.92524 5.64288 37912 ft 516 kts 28°
2026-05-06 17:20 42.95575 5.66844 37900 ft 514 kts 28°
2026-05-06 17:20 43.01664 5.71954 37909 ft 518 kts 28°
2026-05-06 17:21 43.07804 5.77125 37946 ft 517 kts 28°
2026-05-06 17:21 43.12890 5.81417 37898 ft 517 kts 28°
2026-05-06 17:22 43.20033 5.87456 37928 ft 518 kts 29°
2026-05-06 17:22 43.25188 5.91826 37866 ft 519 kts 29°
2026-05-06 17:23 43.31586 5.97256 37921 ft 519 kts 29°
2026-05-06 17:23 43.37948 6.02086 37908 ft 514 kts 18°
2026-05-06 17:24 43.44775 6.04524 37918 ft 505 kts
2026-05-06 17:24 43.51731 6.05201 37841 ft 505 kts 359°
2026-05-06 17:25 43.58797 6.05942 37889 ft 505 kts 359°
2026-05-06 17:25 43.65811 6.06679 37875 ft 505 kts 359°
2026-05-06 17:26 43.72809 6.07490 37864 ft 508 kts
2026-05-06 17:26 43.79719 6.09907 37869 ft 516 kts 17°
2026-05-06 17:27 43.86259 6.14079 37875 ft 519 kts 24°
2026-05-06 17:27 43.92728 6.18480 37893 ft 519 kts 23°
2026-05-06 17:28 43.99280 6.22937 37911 ft 519 kts 23°
2026-05-06 17:28 44.05792 6.27398 37895 ft 520 kts 23°
2026-05-06 17:29 44.12261 6.31845 37803 ft 519 kts 23°
2026-05-06 17:29 44.15531 6.34097 37931 ft 517 kts 23°
2026-05-06 17:29 44.18865 6.36396 37923 ft 516 kts 23°
2026-05-06 17:29 44.21964 6.38532 37808 ft 518 kts 23°
2026-05-06 17:30 44.25244 6.40795 37978 ft 516 kts 23°
2026-05-06 17:30 44.31696 6.45265 37843 ft 520 kts 24°
2026-05-06 17:30 44.34936 6.47512 37976 ft 519 kts 24°
2026-05-06 17:31 44.38171 6.49753 37856 ft 516 kts 23°
2026-05-06 17:31 44.44682 6.54277 37989 ft 515 kts 24°
2026-05-06 17:31 44.47855 6.56493 37824 ft 516 kts 24°
2026-05-06 17:32 44.51084 6.58746 37916 ft 516 kts 24°
2026-05-06 17:32 44.56530 6.62551 37853 ft 516 kts 24°
2026-05-06 17:32 44.59673 6.64753 37985 ft 512 kts 24°
2026-05-06 17:33 44.62926 6.67032 37817 ft 515 kts 24°
2026-05-06 17:33 44.69378 6.71547 37942 ft 517 kts 24°
2026-05-06 17:33 44.72526 6.73762 37811 ft 515 kts 24°
2026-05-06 17:34 44.75827 6.76021 37909 ft 513 kts 20°
2026-05-06 17:34 44.82631 6.78478 37872 ft 504 kts
2026-05-06 17:35 44.89571 6.78387 37870 ft 499 kts 352°
2026-05-06 17:35 44.96572 6.77911 37879 ft 500 kts 353°
2026-05-06 17:36 45.06991 6.77246 37874 ft 499 kts 353°
2026-05-06 17:36 45.14081 6.76773 37881 ft 500 kts 353°
2026-05-06 17:37 45.21019 6.76309 37892 ft 498 kts 353°
2026-05-06 17:37 45.27968 6.75847 37913 ft 500 kts 353°
2026-05-06 17:38 45.34941 6.75388 37933 ft 499 kts 353°
2026-05-06 17:38 45.41839 6.74930 37924 ft 499 kts 353°
2026-05-06 17:39 45.48777 6.74462 37928 ft 499 kts 353°
2026-05-06 17:39 45.55743 6.73987 37928 ft 497 kts 353°
2026-05-06 17:40 45.62658 6.73514 37939 ft 500 kts 353°
2026-05-06 17:40 45.69581 6.73042 37962 ft 497 kts 353°
2026-05-06 17:41 45.76531 6.72564 37883 ft 498 kts 353°
2026-05-06 17:41 45.83456 6.72087 37905 ft 495 kts 354°
2026-05-06 17:42 45.90327 6.71619 37911 ft 500 kts 354°